Regional Weather Roundup
Issued by NWS Columbia, SC

Home | Current Version | Previous Version | Text Only | Print | Product List | Glossary On
Versions: 1 2 3 4 5 6 7 8 9 10 11 12 13 14 15 16 17 18 19 20 21 22 23 24 25 26 27
000
ASUS42 KCAE 252010
RWRCAE
REGIONAL WEATHER ROUNDUP
NATIONAL WEATHER SERVICE COLUMBIA SC
300 PM EST SAT FEB 25 2017

NOTE: "FAIR" INDICATES FEW OR NO CLOUDS BELOW 12,000 FEET WITH NO
SIGNIFICANT WEATHER AND/OR OBSTRUCTIONS TO VISIBILITY.

NOT ALL STATIONS ARE QUALITY CONTROLLED BY THE NATIONAL
WEATHER SERVICE. USE DATA WITH CAUTION...ESPECIALLY
DEWPOINT OBSERVATIONS.

SCZ001>056-GAZ040-063>065-077-252100-
...UPSTATE SOUTH CAROLINA...

CITY           SKY/WX    TMP DP  RH WIND       PRES   REMARKS
ANDERSON       SUNNY     68  15  13 W26G33    29.76R
LIBERTY        CLEAR     67  14  12 W23G31    29.74R
SPARTANBURG    SUNNY     72  18  13 SW24G32   29.68R
CLEMSON        SUNNY     69  18  14 W22G31    29.76R
GREENVILLE     SUNNY     71  25  17 W16G30    29.72R
GREENWOOD      SUNNY     70  15  12 W21G32    29.76R
GREER          SUNNY     72  28  19 W18G35    29.69R
ROCK HILL      SUNNY     77  42  28 W21G28    29.64F
CHESTER        CLEAR     75  10   8 SW15G30   29.66S
LAURENS        CLEAR     72  19  14 W20G31    29.72R


...CENTRAL SOUTH CAROLINA...

CITY           SKY/WX    TMP DP  RH WIND       PRES   REMARKS
COLUMBIA APT   MOSUNNY   79  46  31 SW23G33   29.69F
COLUMBIA OWENS MOSUNNY   79  49  34 W16G23    29.70F
MCENTIRE ANGB  MOSUNNY   77  53  44 W18G28    29.69F
ORANGEBURG     PTSUNNY   77  58  51 W17G24    29.72F
SUMTER SHAW    MOSUNNY   75  56  51 W15G21    29.67F
AIKEN          FAIR      75  37  25 SW18G28   29.76F
BARNWELL       FAIR      79  55  44 SW16      29.73F
MANNING        FAIR      73  55  53 MISG      29.71F
CAMDEN         FAIR      77  54  44 SW15G24   29.68S
LANCASTER      CLEAR     77  37  24 SW23G31   29.64F
WINNSBORO      CLEAR     77  43  29 W14G25    29.68F


...EASTERN AND COASTAL SOUTH CAROLINA...

CITY           SKY/WX    TMP DP  RH WIND       PRES   REMARKS
MYRTLE BEACH   PTSUNNY   72  61  68 S14       29.69F
N MYRTLE BCH   MOSUNNY   67  61  81 SW22G30   29.69F
CONWAY         FAIR      79  55  44 SW13      29.69S HAZE
MARION         CLOUDY    73  55  53 SW15G23   29.68F
HARTSVILLE     FAIR      73  54  49 SW13G18   29.66F
FLORENCE       MOSUNNY   77  58  51 SW15G22   29.67F
DARLINGTON     PTSUNNY   77  57  50 SW17G30   29.65F
CHARLESTON APT MOSUNNY   81  55  40 W15G23    29.73S
MOUNT PLEASANT FAIR      73  63  68 S14G23    29.73S
WALTERBORO     MOCLDY    73  55  53 SW15      29.76S
BEAUFORT       SUNNY     79  58  48 W18G25    29.76F


...EASTERN GEORGIA...

CITY           SKY/WX    TMP DP  RH WIND       PRES   REMARKS
AUGUSTA BUSH F SUNNY     79  40  24 W16G25    29.73S
AUGUSTA DANIEL SUNNY     76  27  16 SW14G23   29.76S
THOMSON        SUNNY     75  32  20 NW12G22   29.82R
WASHINGTON     FAIR      70  28  21 W16G28    29.79R
CLAXTON        FAIR      78  62  59 SW13G21   29.79S
SYLVANIA       MOCLDY   N/A N/A N/A NW15G22   29.77F
STATESBORO     SUNNY     79  59  50 W10G25    29.77F
SAVANNAH       PTSUNNY   77  57  50 W15G21    29.78F


...SOUTHERN NORTH CAROLINA...

CITY           SKY/WX    TMP DP  RH WIND       PRES   REMARKS
CHARLOTTE      MOSUNNY   77  29  17 SW26G37   29.62F
MONROE         SUNNY     75  47  36 SW25G33   29.61F
WADESBORO      CLEAR     77  54  43 SW10G20   29.62F
ROCKINGHAM     PTCLDY    77  56  49 SW17G24   29.63F
RUTHERFORDTON  SUNNY     71  29  20 NW16G31   29.67R
ASHEVILLE      SUNNY     62  10  13 NW23G36   29.74R

$$




USA.gov is the U.S. government's official web portal to all federal, state and local government web resources and services.